| time (UTC) | temp F | wind direction | speed knots | gust knots | rain 1hr in | rain 24hr in | rain mn in | humidity % | barometer mb |
| 20260507052504 | 57 | 147 | 0.0 | 1.7 | 0.00 | 0.00 | 0.00 | 83 | 1016.8 |
| 20260507052005 | 66 | 0 | 1.7 | 1.7 | 0.00 | 0.00 | 0.00 | 65 | 1020.0 |
| 20260507051504 | 66 | 0 | 1.7 | 1.7 | 0.00 | 0.00 | 0.00 | 65 | 1020.0 |
| 20260507051004 | 66 | 0 | 1.7 | 1.7 | 0.00 | 0.00 | 0.00 | 65 | 1020.0 |
| 20260507050504 | 66 | 0 | 1.7 | 1.7 | 0.00 | 0.00 | 0.00 | 65 | 1020.0 |
| 20260507050005 | 58 | 167 | 0.0 | 0.0 | 0.00 | 0.00 | 0.00 | 81 | 1016.8 |
| 20260507045505 | 58 | 167 | 0.0 | 0.0 | 0.00 | 0.00 | 0.00 | 80 | 1016.8 |
| 20260507045005 | 59 | 167 | 0.0 | 2.6 | 0.00 | 0.00 | 0.00 | 80 | 1016.8 |
| 20260507043005 | 60 | 134 | 0.0 | 1.7 | 0.00 | 0.00 | 0.00 | 77 | 1016.8 |
| 20260507042504 | 60 | 134 | 0.0 | 0.0 | 0.00 | 0.00 | 0.00 | 76 | 1016.8 |
| 20260507041504 | 61 | 143 | 0.0 | 2.6 | 0.00 | 0.00 | 0.00 | 74 | 1016.8 |
| 20260507041004 | 61 | 114 | 0.0 | 2.6 | 0.00 | 0.00 | 0.00 | 73 | 1016.8 |
| 20260507040005 | 62 | 151 | 0.0 | 0.9 | 0.00 | 0.00 | 0.00 | 71 | 1016.8 |
| 20260507035505 | 62 | 120 | 0.0 | 0.0 | 0.00 | 0.00 | 0.00 | 71 | 1016.8 |
| 20260507035005 | 66 | 0 | 1.7 | 1.7 | 0.00 | 0.00 | 0.00 | 65 | 1020.0 |
| 20260507034505 | 63 | 120 | 0.0 | 1.7 | 0.00 | 0.00 | 0.00 | 69 | 1016.8 |
| 20260507034004 | 63 | 120 | 0.0 | 0.0 | 0.00 | 0.00 | 0.00 | 68 | 1016.8 |
| 20260507033504 | 66 | 0 | 1.7 | 1.7 | 0.00 | 0.00 | 0.00 | 65 | 1020.0 |
| 20260507033005 | 66 | 0 | 1.7 | 1.7 | 0.00 | 0.00 | 0.00 | 65 | 1020.0 |
| 20260507032504 | 66 | 0 | 1.7 | 1.7 | 0.00 | 0.00 | 0.00 | 65 | 1020.0 |
| 20260507032005 | 66 | 0 | 1.7 | 1.7 | 0.00 | 0.00 | 0.00 | 65 | 1020.0 |
| 20260507031504 | 65 | 135 | 0.9 | 2.6 | 0.00 | 0.00 | 0.00 | 65 | 1016.2 |
| 20260507031005 | 66 | 129 | 0.9 | 5.2 | 0.00 | 0.00 | 0.00 | 64 | 1016.2 |
| 20260507030505 | 66 | 122 | 2.6 | 6.1 | 0.00 | 0.00 | 0.00 | 64 | 1016.2 |
| 20260507030005 | 66 | 158 | 1.7 | 7.0 | 0.00 | 0.00 | 0.00 | 63 | 1016.2 |
| 20260507025504 | 66 | 0 | 1.7 | 1.7 | 0.00 | 0.00 | 0.00 | 65 | 1020.0 |
| 20260507025005 | 66 | 0 | 1.7 | 1.7 | 0.00 | 0.00 | 0.00 | 65 | 1020.0 |
| 20260507024005 | 66 | 0 | 1.7 | 1.7 | 0.00 | 0.00 | 0.00 | 65 | 1020.0 |
| 20260507023004 | 66 | 0 | 1.7 | 1.7 | 0.00 | 0.00 | 0.00 | 65 | 1020.0 |
| 20260507022504 | 66 | 0 | 1.7 | 1.7 | 0.00 | 0.00 | 0.00 | 65 | 1020.0 |
| 20260507022005 | 66 | 0 | 1.7 | 1.7 | 0.00 | 0.00 | 0.00 | 65 | 1020.0 |
| 20260507021504 | 69 | 127 | 0.0 | 2.6 | 0.00 | 0.00 | 0.00 | 54 | 1016.2 |
| 20260507021004 | 70 | 112 | 0.0 | 2.6 | 0.00 | 0.00 | 0.00 | 54 | 1016.2 |
| 20260507020505 | 70 | 134 | 0.0 | 1.7 | 0.00 | 0.00 | 0.00 | 54 | 1016.2 |
| 20260507020004 | 70 | 111 | 0.9 | 5.2 | 0.00 | 0.00 | 0.00 | 53 | 1016.2 |
| 20260507015505 | 66 | 0 | 1.7 | 1.7 | 0.00 | 0.00 | 0.00 | 65 | 1020.0 |
| 20260507015004 | 66 | 0 | 1.7 | 1.7 | 0.00 | 0.00 | 0.00 | 65 | 1020.0 |
| 20260507014504 | 66 | 0 | 1.7 | 1.7 | 0.00 | 0.00 | 0.00 | 65 | 1020.0 |
| 20260507014005 | 66 | 0 | 1.7 | 1.7 | 0.00 | 0.00 | 0.00 | 65 | 1020.0 |
| 20260507013504 | 71 | 172 | 0.9 | 5.2 | 0.00 | 0.00 | 0.00 | 52 | 1016.3 |
| 20260507012005 | 66 | 0 | 1.7 | 1.7 | 0.00 | 0.00 | 0.00 | 65 | 1020.0 |
| 20260507011505 | 66 | 0 | 1.7 | 1.7 | 0.00 | 0.00 | 0.00 | 65 | 1020.0 |
| 20260507011004 | 72 | 140 | 2.6 | 5.2 | 0.00 | 0.00 | 0.00 | 50 | 1016.2 |
| 20260507010505 | 72 | 158 | 0.9 | 4.3 | 0.00 | 0.00 | 0.00 | 49 | 1016.2 |
| 20260507005504 | 72 | 182 | 0.0 | 2.6 | 0.00 | 0.00 | 0.00 | 48 | 1016.0 |
| 20260507005005 | 72 | 161 | 0.9 | 2.6 | 0.00 | 0.00 | 0.00 | 49 | 1016.0 |
| 20260507004504 | 72 | 181 | 0.9 | 5.2 | 0.00 | 0.00 | 0.00 | 48 | 1016.0 |
| 20260507004004 | 72 | 175 | 0.9 | 7.0 | 0.00 | 0.00 | 0.00 | 49 | 1016.0 |
| 20260507003505 | 73 | 164 | 0.9 | 5.2 | 0.00 | 0.00 | 0.00 | 48 | 1016.0 |
| 20260507003004 | 66 | 0 | 1.7 | 1.7 | 0.00 | 0.00 | 0.00 | 65 | 1020.0 |
| 20260507002504 | 66 | 0 | 1.7 | 1.7 | 0.00 | 0.00 | 0.00 | 65 | 1020.0 |
| 20260507002005 | 66 | 0 | 1.7 | 1.7 | 0.00 | 0.00 | 0.00 | 65 | 1020.0 |
| 20260507001504 | 66 | 0 | 1.7 | 1.7 | 0.00 | 0.00 | 0.00 | 65 | 1020.0 |
| 20260507001005 | 66 | 0 | 1.7 | 1.7 | 0.00 | 0.00 | 0.00 | 65 | 1020.0 |
| 20260507000505 | 74 | 145 | 1.7 | 6.1 | 0.00 | 0.00 | 0.00 | 47 | 1016.0 |
| 20260507000005 | 66 | 0 | 1.7 | 1.7 | 0.00 | 0.00 | 0.00 | 65 | 1020.0 |
| 20260506235504 | 66 | 0 | 1.7 | 1.7 | 0.00 | 0.00 | 0.00 | 65 | 1020.0 |
| 20260506235005 | 75 | 176 | 0.9 | 5.2 | 0.00 | 0.00 | 0.00 | 46 | 1016.1 |
| 20260506234504 | 66 | 0 | 1.7 | 1.7 | 0.00 | 0.00 | 0.00 | 65 | 1020.0 |
| 20260506234004 | 66 | 0 | 1.7 | 1.7 | 0.00 | 0.00 | 0.00 | 65 | 1020.0 |
| 20260506233505 | 76 | 187 | 0.9 | 2.6 | 0.00 | 0.00 | 0.00 | 44 | 1016.1 |
| 20260506233004 | 75 | 306 | 0.9 | 4.3 | 0.00 | 0.00 | 0.00 | 45 | 1016.8 |
| 20260506232504 | 75 | 154 | 1.7 | 4.3 | 0.00 | 0.00 | 0.00 | 45 | 1016.8 |
| 20260506232005 | 74 | 124 | 1.7 | 6.1 | 0.00 | 0.00 | 0.00 | 46 | 1016.8 |
| 20260506231504 | 75 | 153 | 2.6 | 5.2 | 0.00 | 0.00 | 0.00 | 44 | 1016.8 |
| 20260506231004 | 66 | 0 | 1.7 | 1.7 | 0.00 | 0.00 | 0.00 | 65 | 1020.0 |
| 20260506230004 | 66 | 0 | 1.7 | 1.7 | 0.00 | 0.00 | 0.00 | 65 | 1020.0 |
| 20260506225005 | 66 | 0 | 1.7 | 1.7 | 0.00 | 0.00 | 0.00 | 65 | 1020.0 |
| 20260506223504 | 66 | 0 | 1.7 | 1.7 | 0.00 | 0.00 | 0.00 | 65 | 1020.0 |
| 20260506223004 | 76 | 251 | 0.9 | 4.3 | 0.00 | 0.00 | 0.00 | 45 | 1016.8 |
| 20260506222505 | 76 | 160 | 1.7 | 4.3 | 0.00 | 0.00 | 0.00 | 45 | 1016.8 |
| 20260506222004 | 66 | 0 | 1.7 | 1.7 | 0.00 | 0.00 | 0.00 | 65 | 1020.0 |
| 20260506221505 | 66 | 0 | 1.7 | 1.7 | 0.00 | 0.00 | 0.00 | 65 | 1020.0 |
| 20260506220504 | 66 | 0 | 1.7 | 1.7 | 0.00 | 0.00 | 0.00 | 65 | 1020.0 |
| 20260506220005 | 66 | 0 | 1.7 | 1.7 | 0.00 | 0.00 | 0.00 | 65 | 1020.0 |
| 20260506215006 | 76 | 260 | 0.0 | 4.3 | 0.00 | 0.00 | 0.00 | 45 | 1017.3 |
| 20260506213504 | 66 | 0 | 1.7 | 1.7 | 0.00 | 0.00 | 0.00 | 65 | 1020.0 |
| 20260506213004 | 66 | 0 | 1.7 | 1.7 | 0.00 | 0.00 | 0.00 | 65 | 1020.0 |
| 20260506212505 | 66 | 0 | 1.7 | 1.7 | 0.00 | 0.00 | 0.00 | 65 | 1020.0 |
| 20260506211004 | 75 | 188 | 1.7 | 5.2 | 0.00 | 0.00 | 0.00 | 47 | 1017.6 |
| 20260506210005 | 76 | 146 | 2.6 | 7.0 | 0.00 | 0.00 | 0.00 | 47 | 1017.6 |
| 20260506205506 | 76 | 257 | 0.9 | 5.2 | 0.00 | 0.00 | 0.00 | 47 | 1017.7 |
| 20260506205004 | 76 | 218 | 1.7 | 5.2 | 0.00 | 0.00 | 0.00 | 45 | 1017.8 |
| 20260506204505 | 76 | 208 | 1.7 | 4.3 | 0.00 | 0.00 | 0.00 | 46 | 1017.8 |
| 20260506204005 | 75 | 302 | 0.9 | 4.3 | 0.00 | 0.00 | 0.00 | 47 | 1017.8 |
| 20260506203505 | 75 | 229 | 1.7 | 6.1 | 0.00 | 0.00 | 0.00 | 47 | 1018.0 |
| 20260506203004 | 75 | 196 | 1.7 | 4.3 | 0.00 | 0.00 | 0.00 | 48 | 1018.0 |
| 20260506202005 | 66 | 0 | 1.7 | 1.7 | 0.00 | 0.00 | 0.00 | 65 | 1020.0 |
| 20260506201504 | 74 | 181 | 0.9 | 4.3 | 0.00 | 0.00 | 0.00 | 47 | 1018.0 |
| 20260506201005 | 74 | 154 | 0.9 | 4.3 | 0.00 | 0.00 | 0.00 | 48 | 1018.3 |
| 20260506200505 | 74 | 297 | 1.7 | 6.1 | 0.00 | 0.00 | 0.00 | 48 | 1018.3 |
| 20260506200005 | 74 | 218 | 1.7 | 7.0 | 0.00 | 0.00 | 0.00 | 48 | 1018.3 |
| 20260506195004 | 73 | 164 | 2.6 | 5.2 | 0.00 | 0.00 | 0.00 | 49 | 1018.3 |
| 20260506194504 | 73 | 239 | 1.7 | 4.3 | 0.00 | 0.00 | 0.00 | 49 | 1018.3 |
| 20260506194004 | 73 | 308 | 1.7 | 5.2 | 0.00 | 0.00 | 0.00 | 50 | 1018.5 |
| 20260506193005 | 71 | 173 | 0.9 | 2.6 | 0.00 | 0.00 | 0.00 | 52 | 1018.5 |
| 20260506192505 | 72 | 150 | 3.5 | 8.7 | 0.00 | 0.00 | 0.00 | 50 | 1018.5 |
| 20260506192004 | 66 | 0 | 1.7 | 1.7 | 0.00 | 0.00 | 0.00 | 65 | 1020.0 |
| 20260506191504 | 66 | 0 | 1.7 | 1.7 | 0.00 | 0.00 | 0.00 | 65 | 1020.0 |
| 20260506191005 | 71 | 248 | 1.7 | 5.2 | 0.00 | 0.00 | 0.00 | 49 | 1018.5 |
| 20260506190505 | 72 | 157 | 1.7 | 2.6 | 0.00 | 0.00 | 0.00 | 49 | 1018.5 |
| 20260506190006 | 72 | 339 | 0.0 | 4.3 | 0.00 | 0.00 | 0.00 | 52 | 1018.7 |
| 20260506185504 | 66 | 0 | 1.7 | 1.7 | 0.00 | 0.00 | 0.00 | 65 | 1020.0 |
| 20260506185004 | 66 | 0 | 1.7 | 1.7 | 0.00 | 0.00 | 0.00 | 65 | 1020.0 |
| 20260506184005 | 66 | 0 | 1.7 | 1.7 | 0.00 | 0.00 | 0.00 | 65 | 1020.0 |
| 20260506183504 | 66 | 0 | 1.7 | 1.7 | 0.00 | 0.00 | 0.00 | 65 | 1020.0 |
| 20260506183005 | 70 | 250 | 0.9 | 2.6 | 0.00 | 0.00 | 0.00 | 55 | 1018.7 |
| 20260506182505 | 69 | 182 | 0.9 | 5.2 | 0.00 | 0.00 | 0.00 | 56 | 1018.7 |
| 20260506182004 | 68 | 171 | 1.7 | 5.2 | 0.00 | 0.00 | 0.00 | 58 | 1018.7 |
| 20260506181505 | 66 | 0 | 1.7 | 1.7 | 0.00 | 0.00 | 0.00 | 65 | 1020.0 |
| 20260506181004 | 68 | 154 | 0.9 | 5.2 | 0.00 | 0.00 | 0.00 | 58 | 1018.7 |
| 20260506180504 | 69 | 160 | 1.7 | 7.0 | 0.00 | 0.00 | 0.00 | 58 | 1018.7 |
| 20260506180005 | 70 | 172 | 2.6 | 7.0 | 0.00 | 0.00 | 0.00 | 59 | 1018.8 |
| 20260506175504 | 66 | 0 | 1.7 | 1.7 | 0.00 | 0.00 | 0.00 | 65 | 1020.0 |
| 20260506174504 | 66 | 0 | 1.7 | 1.7 | 0.00 | 0.00 | 0.00 | 65 | 1020.0 |
| 20260506174004 | 66 | 0 | 1.7 | 1.7 | 0.00 | 0.00 | 0.00 | 65 | 1020.0 |
| 20260506173504 | 67 | 211 | 2.6 | 8.7 | 0.00 | 0.00 | 0.00 | 62 | 1018.8 |
| 20260506173004 | 68 | 221 | 0.9 | 2.6 | 0.00 | 0.00 | 0.00 | 62 | 1018.8 |
| 20260506172504 | 67 | 171 | 1.7 | 4.3 | 0.00 | 0.00 | 0.00 | 62 | 1018.8 |
| 20260506170504 | 67 | 192 | 0.0 | 2.6 | 0.00 | 0.00 | 0.00 | 64 | 1018.8 |
| 20260506170004 | 66 | 202 | 0.9 | 4.3 | 0.00 | 0.00 | 0.00 | 65 | 1018.8 |
| 20260506165504 | 66 | 211 | 0.0 | 2.6 | 0.00 | 0.00 | 0.00 | 65 | 1018.8 |
| 20260506165005 | 66 | 0 | 1.7 | 1.7 | 0.00 | 0.00 | 0.00 | 65 | 1020.0 |
| 20260506164504 | 66 | 0 | 1.7 | 1.7 | 0.00 | 0.00 | 0.00 | 65 | 1020.0 |
| 20260506164004 | 65 | 193 | 0.9 | 2.6 | 0.00 | 0.00 | 0.00 | 65 | 1018.8 |
| 20260506163504 | 66 | 170 | 1.7 | 5.2 | 0.00 | 0.00 | 0.00 | 65 | 1018.8 |
| 20260506163004 | 66 | 183 | 1.7 | 4.3 | 0.00 | 0.00 | 0.00 | 64 | 1018.8 |
| 20260506162005 | 66 | 0 | 1.7 | 1.7 | 0.00 | 0.00 | 0.00 | 65 | 1020.0 |
| 20260506161504 | 64 | 320 | 0.9 | 2.6 | 0.00 | 0.00 | 0.00 | 64 | 1018.9 |
| 20260506161005 | 66 | 0 | 1.7 | 1.7 | 0.00 | 0.00 | 0.00 | 65 | 1020.0 |
| 20260506160504 | 63 | 333 | 0.0 | 0.0 | 0.00 | 0.00 | 0.00 | 68 | 1018.9 |
| 20260506160004 | 63 | 333 | 0.0 | 0.0 | 0.00 | 0.00 | 0.00 | 69 | 1018.9 |
| 20260506155504 | 63 | 333 | 0.0 | 0.0 | 0.00 | 0.00 | 0.00 | 69 | 1018.9 |
| 20260506155005 | 63 | 333 | 0.0 | 0.0 | 0.00 | 0.00 | 0.00 | 70 | 1018.9 |
| 20260506154504 | 63 | 333 | 0.0 | 0.0 | 0.00 | 0.00 | 0.00 | 70 | 1018.9 |
| 20260506154004 | 63 | 333 | 0.0 | 0.9 | 0.00 | 0.00 | 0.00 | 71 | 1018.9 |
| 20260506153504 | 62 | 333 | 0.0 | 1.7 | 0.00 | 0.00 | 0.00 | 72 | 1018.9 |
| 20260506153004 | 62 | 0 | 0.0 | 0.9 | 0.00 | 0.00 | 0.00 | 72 | 1018.9 |
| 20260506152504 | 62 | 14 | 0.0 | 0.0 | 0.00 | 0.00 | 0.00 | 73 | 1018.3 |
| 20260506152005 | 61 | 14 | 0.0 | 0.0 | 0.00 | 0.00 | 0.00 | 74 | 1018.3 |
| 20260506151504 | 66 | 0 | 1.7 | 1.7 | 0.00 | 0.00 | 0.00 | 65 | 1020.0 |
| 20260506151005 | 61 | 14 | 0.0 | 0.0 | 0.00 | 0.00 | 0.00 | 76 | 1018.3 |
| 20260506150504 | 66 | 0 | 1.7 | 1.7 | 0.00 | 0.00 | 0.00 | 65 | 1020.0 |
| 20260506150005 | 60 | 37 | 0.0 | 0.0 | 0.00 | 0.00 | 0.00 | 79 | 1018.3 |
| 20260506145505 | 60 | 37 | 0.0 | 0.0 | 0.00 | 0.00 | 0.00 | 80 | 1018.3 |
| 20260506145004 | 66 | 0 | 1.7 | 1.7 | 0.00 | 0.00 | 0.00 | 65 | 1020.0 |
| 20260506144005 | 66 | 0 | 1.7 | 1.7 | 0.00 | 0.00 | 0.00 | 65 | 1020.0 |
| 20260506143505 | 66 | 0 | 1.7 | 1.7 | 0.00 | 0.00 | 0.00 | 65 | 1020.0 |
| 20260506143004 | 66 | 0 | 1.7 | 1.7 | 0.00 | 0.00 | 0.00 | 65 | 1020.0 |
| 20260506142504 | 66 | 0 | 1.7 | 1.7 | 0.00 | 0.00 | 0.00 | 65 | 1020.0 |
| 20260506141504 | 55 | 37 | 0.0 | 0.0 | 0.00 | 0.00 | 0.00 | 90 | 1018.3 |
| 20260506140504 | 55 | 37 | 0.0 | 0.0 | 0.00 | 0.00 | 0.00 | 90 | 1018.3 |
| 20260506135504 | 54 | 37 | 0.0 | 0.0 | 0.00 | 0.00 | 0.00 | 91 | 1018.3 |
| 20260506135004 | 54 | 37 | 0.0 | 0.0 | 0.00 | 0.00 | 0.00 | 91 | 1018.3 |
| 20260506134504 | 54 | 37 | 0.0 | 0.0 | 0.00 | 0.00 | 0.00 | 91 | 1018.3 |
| 20260506134004 | 54 | 37 | 0.0 | 0.0 | 0.00 | 0.00 | 0.00 | 91 | 1018.3 |
| 20260506133504 | 54 | 37 | 0.0 | 0.0 | 0.00 | 0.00 | 0.00 | 91 | 1018.3 |
| 20260506133004 | 66 | 0 | 1.7 | 1.7 | 0.00 | 0.00 | 0.00 | 65 | 1020.0 |
| 20260506132504 | 66 | 0 | 1.7 | 1.7 | 0.00 | 0.00 | 0.00 | 65 | 1020.0 |
| 20260506132005 | 66 | 0 | 1.7 | 1.7 | 0.00 | 0.00 | 0.00 | 65 | 1020.0 |
| 20260506131504 | 66 | 0 | 1.7 | 1.7 | 0.00 | 0.00 | 0.00 | 65 | 1020.0 |
| 20260506131005 | 66 | 0 | 1.7 | 1.7 | 0.00 | 0.00 | 0.00 | 65 | 1020.0 |
| 20260506130505 | 66 | 0 | 1.7 | 1.7 | 0.00 | 0.00 | 0.00 | 65 | 1020.0 |
| 20260506125504 | 53 | 37 | 0.0 | 0.0 | 0.00 | 0.00 | 0.00 | 91 | 1018.1 |
| 20260506125004 | 66 | 0 | 1.7 | 1.7 | 0.00 | 0.00 | 0.00 | 65 | 1020.0 |
| 20260506124504 | 66 | 0 | 1.7 | 1.7 | 0.00 | 0.00 | 0.00 | 65 | 1020.0 |
| 20260506124005 | 66 | 0 | 1.7 | 1.7 | 0.00 | 0.00 | 0.00 | 65 | 1020.0 |
| 20260506123504 | 66 | 0 | 1.7 | 1.7 | 0.00 | 0.00 | 0.00 | 65 | 1020.0 |
| 20260506123004 | 66 | 0 | 1.7 | 1.7 | 0.00 | 0.00 | 0.00 | 65 | 1020.0 |
| 20260506122504 | 66 | 0 | 1.7 | 1.7 | 0.00 | 0.00 | 0.00 | 65 | 1020.0 |
| 20260506122004 | 66 | 0 | 1.7 | 1.7 | 0.00 | 0.00 | 0.00 | 65 | 1020.0 |
| 20260506121505 | 66 | 0 | 1.7 | 1.7 | 0.00 | 0.00 | 0.00 | 65 | 1020.0 |
| 20260506121004 | 66 | 0 | 1.7 | 1.7 | 0.00 | 0.00 | 0.00 | 65 | 1020.0 |
| 20260506120504 | 66 | 0 | 1.7 | 1.7 | 0.00 | 0.00 | 0.00 | 65 | 1020.0 |
| 20260506120005 | 66 | 0 | 1.7 | 1.7 | 0.00 | 0.00 | 0.00 | 65 | 1020.0 |
| 20260506115004 | 66 | 0 | 1.7 | 1.7 | 0.00 | 0.00 | 0.00 | 65 | 1020.0 |
| 20260506114504 | 53 | 37 | 0.0 | 0.0 | 0.00 | 0.00 | 0.00 | 90 | 1017.7 |
| 20260506113504 | 53 | 37 | 0.0 | 0.0 | 0.00 | 0.00 | 0.00 | 90 | 1017.7 |
| 20260506113004 | 53 | 37 | 0.0 | 0.0 | 0.00 | 0.00 | 0.00 | 90 | 1017.6 |
| 20260506112504 | 53 | 37 | 0.0 | 0.0 | 0.00 | 0.00 | 0.00 | 90 | 1017.6 |
| 20260506112004 | 66 | 0 | 1.7 | 1.7 | 0.00 | 0.00 | 0.00 | 65 | 1020.0 |
| 20260506111504 | 66 | 0 | 1.7 | 1.7 | 0.00 | 0.00 | 0.00 | 65 | 1020.0 |
| 20260506111004 | 66 | 0 | 1.7 | 1.7 | 0.00 | 0.00 | 0.00 | 65 | 1020.0 |
| 20260506110504 | 66 | 0 | 1.7 | 1.7 | 0.00 | 0.00 | 0.00 | 65 | 1020.0 |
| 20260506110004 | 66 | 0 | 1.7 | 1.7 | 0.00 | 0.00 | 0.00 | 65 | 1020.0 |
| 20260506103004 | 53 | 37 | 0.0 | 0.0 | 0.00 | 0.00 | 0.00 | 90 | 1017.6 |
| 20260506102504 | 53 | 37 | 0.0 | 0.0 | 0.00 | 0.00 | 0.00 | 90 | 1017.6 |
| 20260506102004 | 53 | 37 | 0.0 | 0.0 | 0.00 | 0.00 | 0.00 | 90 | 1017.5 |
| 20260506101505 | 53 | 37 | 0.0 | 0.0 | 0.00 | 0.00 | 0.00 | 90 | 1017.5 |
| 20260506101004 | 66 | 0 | 1.7 | 1.7 | 0.00 | 0.00 | 0.00 | 65 | 1020.0 |
| 20260506100504 | 66 | 0 | 1.7 | 1.7 | 0.00 | 0.00 | 0.00 | 65 | 1020.0 |
| 20260506095504 | 53 | 37 | 0.0 | 0.0 | 0.00 | 0.00 | 0.00 | 90 | 1017.5 |
| 20260506095004 | 66 | 0 | 1.7 | 1.7 | 0.00 | 0.00 | 0.00 | 65 | 1020.0 |
| 20260506094504 | 53 | 37 | 0.0 | 0.0 | 0.00 | 0.00 | 0.00 | 90 | 1017.5 |
| 20260506094004 | 53 | 37 | 0.0 | 0.9 | 0.00 | 0.00 | 0.00 | 90 | 1017.5 |
| 20260506093005 | 66 | 0 | 1.7 | 1.7 | 0.00 | 0.00 | 0.00 | 65 | 1020.0 |
| 20260506092504 | 53 | 37 | 0.0 | 0.0 | 0.00 | 0.00 | 0.00 | 90 | 1017.5 |
| 20260506092005 | 66 | 0 | 1.7 | 1.7 | 0.00 | 0.00 | 0.00 | 65 | 1020.0 |
| 20260506091504 | 53 | 37 | 0.0 | 0.0 | 0.00 | 0.00 | 0.00 | 89 | 1017.5 |
| 20260506091004 | 53 | 37 | 0.0 | 0.0 | 0.00 | 0.00 | 0.00 | 90 | 1017.5 |
| 20260506090504 | 66 | 0 | 1.7 | 1.7 | 0.00 | 0.00 | 0.00 | 65 | 1020.0 |
| 20260506090004 | 66 | 0 | 1.7 | 1.7 | 0.00 | 0.00 | 0.00 | 65 | 1020.0 |
| 20260506085505 | 66 | 0 | 1.7 | 1.7 | 0.00 | 0.00 | 0.00 | 65 | 1020.0 |
| 20260506085004 | 66 | 0 | 1.7 | 1.7 | 0.00 | 0.00 | 0.00 | 65 | 1020.0 |
| 20260506084504 | 53 | 37 | 0.0 | 0.0 | 0.00 | 0.00 | 0.00 | 89 | 1017.3 |
| 20260506084004 | 66 | 0 | 1.7 | 1.7 | 0.00 | 0.00 | 0.00 | 65 | 1020.0 |
| 20260506083504 | 53 | 37 | 0.0 | 0.0 | 0.00 | 0.00 | 0.00 | 88 | 1017.3 |
| 20260506083004 | 53 | 37 | 0.0 | 0.0 | 0.00 | 0.00 | 0.00 | 88 | 1017.3 |
| 20260506082504 | 53 | 37 | 0.0 | 0.0 | 0.00 | 0.00 | 0.00 | 88 | 1017.3 |
| 20260506082004 | 53 | 37 | 0.0 | 0.0 | 0.00 | 0.00 | 0.00 | 88 | 1017.3 |
| 20260506081504 | 54 | 37 | 0.0 | 0.0 | 0.00 | 0.00 | 0.00 | 88 | 1017.3 |
| 20260506081005 | 54 | 37 | 0.0 | 0.0 | 0.00 | 0.00 | 0.00 | 88 | 1017.3 |
| 20260506073004 | 66 | 0 | 1.7 | 1.7 | 0.00 | 0.00 | 0.00 | 65 | 1020.0 |
| 20260506072504 | 54 | 37 | 0.0 | 0.0 | 0.00 | 0.00 | 0.00 | 87 | 1016.9 |
| 20260506071504 | 55 | 37 | 0.0 | 0.0 | 0.00 | 0.00 | 0.00 | 87 | 1016.9 |
| 20260506071004 | 66 | 0 | 1.7 | 1.7 | 0.00 | 0.00 | 0.00 | 65 | 1020.0 |
| 20260506070504 | 66 | 0 | 1.7 | 1.7 | 0.00 | 0.00 | 0.00 | 65 | 1020.0 |
| 20260506062504 | 55 | 37 | 0.0 | 0.0 | 0.00 | 0.00 | 0.00 | 85 | 1016.7 |
| 20260506061504 | 55 | 37 | 0.0 | 0.0 | 0.00 | 0.00 | 0.00 | 85 | 1016.7 |
| 20260506061004 | 55 | 37 | 0.0 | 0.0 | 0.00 | 0.00 | 0.00 | 85 | 1016.7 |
| 20260506060504 | 55 | 37 | 0.0 | 0.0 | 0.00 | 0.00 | 0.00 | 85 | 1016.7 |